Location: Burbank
(38.7788°N, 114.0429°W)
Time: 23:28:22
(UTC+00:00)

S-56A Canister/Altair - Pass Details

Date: 10 May 2026
Orbit: 633 x 2484 km, 38.9° (Epoch: 1 June)

Event Time Altitude Azimuth Distance (km) Brightness Sun altitude
Rises 11:18:12 0° 281° (W) 3,714 - -12.7°
Exits shadow 11:19:42 - 276° (W) 3,254 10.3 -12.5°
Reaches altitude 10° 11:20:42 10° 272° (W) 2,969 10.1 -12.4°
Maximum altitude 11:27:22 37° 208° (SSW) 2,091 9.3 -11.3°
Drops below altitude 10° 11:36:57 10° 147° (SSE) 4,266 11.3 -9.7°
Sets 11:41:19 0° 140° (SE) 5,541 12.0 -9.0°
